Location: Newark
(37.9800°N, 91.3000°W)
Time: 20:27:14
(UTC+00:00)

NOAA 19 - Pass Details

Date: 09 December 2019
Orbit: 840 x 862 km, 99.2° (Epoch: 28 January)

Event Time Altitude Azimuth Distance (km) Brightness Sun altitude
Rises 11:40:39 0° 15° (NNE) 3,441 8.4 -17.0°
Reaches altitude 10° 11:43:03 10° 17° (NNE) 2,498 7.7 -16.5°
Maximum altitude 11:48:36 75° 103° (ESE) 886 5.4 -15.5°
Drops below altitude 10° 11:54:05 10° 189° (S) 2,469 7.7 -14.4°
Sets 11:56:26 0° 191° (S) 3,397 8.4 -14.0°
